2024-169C

Last updated on Mon Oct 21 2024 00:02:04 GMT+0000 (Coordinated Universal Time)

1 61191U 24169C 24294.57534319 .00023233 00000+0 14231-2 0 9993 2 61191 97.5941 19.6958 0010723 161.8929 198.2684 15.10137580 4588
UTC large
Height (km)
Speed (km/s)
/
Latitude / Longitude
Inclination (degrees)
Orbital Period (minutes)
Azimuth
Elevation
Range (km)
Doppler Factor

Next 0 passes for location: London (51.5072 / 0.1276)

Sorry there are no passes over London.